Regional Weather Roundup
Issued by NWS

Home | Current Version | Previous Version | Text Only | Print | Product List | Glossary Off
Versions: 1 2 3 4 5 6 7 8 9 10 11 12 13 14 15 16 17 18 19 20 21 22 23 24 25 26 27 28 29 30 31 32 33 34 35 36 37 38 39 40 41 42 43 44 45 46 47 48 49 50

000
ASUS45 KTFX 281019
RWRMT
MONTANA HOURLY WEATHER ROUNDUP
NATIONAL WEATHER SERVICE GREAT FALLS MT
319 AM MST FRI NOV 28 2014

NOTE: "FAIR" INDICATES FEW OR NO CLOUDS BELOW 12000 FEET WITH NO
SIGNIFICANT WEATHER AND/OR OBSTRUCTIONS TO VISIBILITY.

* THESE STATIONS ARE NOT UNDER NWS QUALITY CONTROL. THEY DO NOT
   REPORT WEATHER SUCH AS PRECIPITATION OR FOG.

MTZ001>007-043-281100-
WEST OF THE DIVIDE
CITY           SKY/WX    TMP DP  RH WIND       PRES   REMARKS
KALISPELL      CLOUDY    45  37  74 SE13      29.63F
MISSOULA       CLOUDY    45  36  71 CALM      29.75F
BUTTE          MOCLDY    39  28  65 S8        29.82F WCI  33
MULLAN PASS    FOG       36  36 100 SW14G28   29.70F VSB 2    WCI  27
* ESSEX        N/A       41  37  86 SW1G9      N/A
* EUREKA APT   MOCLDY    48  37  66 SE15      29.57F
* HAMILTON APT CLOUDY    52  34  50 S20       29.78S
* LIBBY APT    PTCLDY    46  43  89 SE3       29.62F
* LINCOLN      N/A       35  34  96 N2         N/A
* LOOKOUT PASS N/A       42  38  86 SE9G22     N/A
* PLAINS APT   CLOUDY    50  37  61 N/A        N/A
* POLSON       N/A       46  38  74 S4G12      N/A
* RONAN APT    CLOUDY    48  39  71 SE13G20    N/A
* SEELEY LAKE  N/A       36  34  92 NE2        N/A
* THOMP F APT  MOCLDY    37  25  62 NE5        N/A   WCI  33
* YAAK HILL    N/A       52  33  48 SW7G15     N/A
$$

MTZ008-052>055-281100-
SOUTHWEST MONTANA
CITY           SKY/WX    TMP DP  RH WIND       PRES   REMARKS
BOZEMAN        CLOUDY    52  27  38 SW10      29.79F
DILLON         CLOUDY    48  27  44 SW18      29.84F
* W YELLOWSTON CLOUDY    35  27  73 S2         N/A
* ENNIS APT    CLOUDY   N/A N/A N/A N/A        N/A
* THREE FORKS  MOCLDY    48  34  59 S6         N/A
* BOULDER HILL N/A       45  24  44 S17G26     N/A
* MONIDA PASS  N/A       34  26  73 SE18       N/A   WCI  23
* RAYNOLDS PAS N/A       37  18  46 SE3G9      N/A
* WHITEHALL    N/A       52  27  38 SW15G26    N/A
* WISE RIVER   N/A       42  29  60 NW8G14     N/A
$$

MTZ009>010-012-014-046-048-049-054-281100-
EAST SLOPES AND CENTRAL MONTANA
CITY           SKY/WX    TMP DP  RH WIND       PRES   REMARKS
CUT BANK       CLEAR     43  34  71 W16       29.56F
GREAT FALLS    MOCLDY    46  34  63 SW17      29.60F
HELENA         CLOUDY    45  32  60 NE3       29.71F
MALMSTROM AFB  MOCLDY    50  36  59 SW28G33   29.61F
* CONRAD       PTCLDY    41  36  82 CALM       N/A
* DEARBORN     N/A       54  34  47 S10G18     N/A
* EAST GLACIER N/A       40  35  82 W19G24     N/A   WCI  31
* MONARCH      N/A       45  23  42 SW24G33    N/A
* PENDROY      N/A       43  33  68 W20G26     N/A
* ROGERS PASS  N/A       40  34  79 SE13G20    N/A   WCI  32
* SAINT MARY   N/A       39  37  93 SE4G12     N/A
* SWEET GRASS  N/A       39  39 100 W22G32     N/A   WCI  29
* WHITE SULPH  N/A       46  28  50 NE4G11     N/A
$$

MTZ011-013-016-021-035-040-045-047-050-051-281100-
NORTH CENTRAL MONTANA
CITY           SKY/WX    TMP DP  RH WIND       PRES   REMARKS
HAVRE          FOG       27  27 100 CALM      29.60F VSB M1/4
LEWISTOWN      CLOUDY    52  34  50 W24G33    29.66F
* N BAR RANCH  CLEAR     52  30  43 W21G36    29.66F
* CHINOOK      CLEAR     27  27 100 E5        29.61F VSB M1/4 WCI  21
* FORT BENTON  PTCLDY    50  36  59 S8        29.61S
* CHESTER      N/A       20  18  92 NE1        N/A
* DENTON       N/A       41  31  68 S10        N/A
* GEYSER       N/A       47  28  48 SW9G18     N/A
* JUDITH GAP   N/A       50  29  44 NW6G14     N/A
* LOMA         N/A       28  28 100 N1G7       N/A
$$

MTZ017>020-022>027-061-062-281100-
NORTHEAST MONTANA
CITY           SKY/WX    TMP DP  RH WIND       PRES   REMARKS
GLASGOW        MOCLDY    19  16  88 E14       29.64F WCI   5
GLENDIVE       CLOUDY    21  19  92 CALM      29.66F
JORDAN         CLOUDY    28  28 100 W3        29.63S
SIDNEY         CLOUDY    21  18  88 CALM      29.71F
WOLF POINT     MOCLDY    19  16  88 E10       29.70F WCI   8
* BEAVER HILL  N/A       33  31  92 E2         N/A
* CIRCLE       N/A       25  23  92 N/A        N/A
* LINDSAY DVD  N/A       43  32  65 SW9        N/A
* NAVAJO       N/A       13  11  92 E8         N/A   WCI   2
* PLENTYWOOD A PTCLDY    12  10  92 E10       29.73F WCI  -1
* POPLAR APT   MOCLDY    18  16  92 N/A       29.71S
* SACO         N/A       23  22  96 E11        N/A   WCI  12
$$

MTZ028>042-056>058-281100-
SOUTHCENTRAL AND SOUTHEAST MONTANA
CITY           SKY/WX    TMP DP  RH WIND       PRES   REMARKS
BAKER          CLOUDY    45  32  60 SW10      29.68F
BILLINGS       MOCLDY    50  30  46 SW9       29.71F
LIVINGSTON     CLOUDY    54  27  35 S17G25    29.74F
MILES CITY     CLOUDY    37  30  76 S5        29.68R WCI  33
* BIG TIMBER A MOCLDY    52  28  40 SW26G33   29.71S
* FORSYTH APT  CLOUDY    48  32  54 W3        29.67S
* LAUREL APT   MOCLDY    43  21  42 N/A        N/A
* ALZADA       N/A       41  30  65 NW7        N/A
* HYSHAM       N/A       48  25  41 W4         N/A
* LAME DEER    N/A       48  27  44 W9         N/A
* REED POINT   N/A       44  30  58 E2         N/A
* ROSCOE HILL  N/A       53  14  21 SW26G40    N/A
$$

REGIONAL REPORTS...DAKOTAS
CITY           SKY/WX    TMP DP  RH WIND       PRES   REMARKS
WILLISTON      N/A       19  16  88 E9        29.72F WCI   8
DICKINSON      CLOUDY    21  18  88 NE9       29.69R WCI  11
BEACH          CLEAR     32  30  92 E3        29.68S
CROSBY         CLOUDY     9   7  91 E17       29.80F WCI  -9
TIOGA          LGT SNOW  10  10 100 E14       29.77F WCI  -6
BISMARCK       MOCLDY     9   5  84 E10       29.84F WCI  -5
GRAND FORKS    CLOUDY    10   7  88 SE14      30.01F WCI  -6
FARGO          CLOUDY    12   7  80 S9        30.03R
BUFFALO SD     CLOUDY    39  27  62 W8        29.64F WCI  33
RAPID CITY     CLOUDY    34  27  76 E5        29.71F WCI  29
$$

REGIONAL REPORTS...WYOMING/IDAHO/WASHINGTON
CITY           SKY/WX    TMP DP  RH WIND       PRES   REMARKS
GILLETTE       PTCLDY    45  28  51 SW21      29.75S
SHERIDAN       CLOUDY    50  27  41 NW14      29.73F
CODY           MOCLDY    54  19  25 W21G33    29.75F
YELLOWSTONE LA CLOUDY    37  21  52 VRB6      30.02F WCI  32
SALMON         CLOUDY    39  34  82 N12       29.85S WCI  32
MULLAN PASS    FOG       36  36 100 SW14G28   29.70S VSB 2    WCI  27
SAND POINT     CLOUDY    50  41  71 SW7       29.64F
SPOKANE        PTCLDY    46  41  83 SW17G30   29.66F
$$

REGIONAL REPORTS...ALBERTA
CITY           SKY/WX    TMP DP  RH WIND       PRES   REMARKS
CALGARY        FOG        1  -2  87 N15       29.61S VSB 3    WCI -18
MEDICINE HAT   FOG       25  25 100 W3        29.59F VSB 3
EDMONTON       LGT SNOW  -4  -9  79 N10       29.84F WCI -21
WATERTON GATE  N/A       41  36  82 SW18G25    N/A
CARDSTON       N/A       19  19 100 N3         N/A
MILK RIVER     N/A       21  21 100 N1         N/A
$$

REGIONAL REPORTS...SASKATCHEWAN
CITY           SKY/WX    TMP DP  RH WIND       PRES   REMARKS
SWIFT CURRENT  CLOUDY    12  10  92 E17G25    29.62F WCI  -5
REGINA         LGT SNOW  10   7  88 E15       29.81F WCI  -7
VAL MARIE      N/A       23  21  92 E3         N/A
ASSINIBOIA     N/A       10   7  88 SE17       N/A   WCI  -8
CORONACH       N/A       14  12  92 E6         N/A   WCI   5

$$




USA.gov is the U.S. government's official web portal to all federal, state and local government web resources and services.